�������l�o���
Date,Time,MP-1(��Sv/h),MP-2(��Sv/h),MP-3(��Sv/h),MP-4(��Sv/h),MP-5(��Sv/h),MP-6(��Sv/h),MP-7(��Sv/h),MP-8(��Sv/h),����,����(m/s),���J
2020/01/25,00:00,0.698,0.998,0.656,1.248,0.876,0.397,0.701,0.666,�k��,4.2,��
2020/01/25,00:10,0.696,0.995,0.657,1.250,0.874,0.397,0.702,0.665,�k��,6.1,��
2020/01/25,00:20,0.696,0.997,0.658,1.251,0.877,0.398,0.701,0.667,�k��,5.5,��
2020/01/25,00:30,0.694,0.995,0.658,1.249,0.875,0.398,0.702,0.666,�k��,5.3,��
2020/01/25,00:40,0.696,0.995,0.656,1.250,0.874,0.398,0.702,0.668,�k��,5.6,��
2020/01/25,00:50,0.695,0.994,0.658,1.249,0.875,0.398,0.703,0.666,�k��,5.6,��
2020/01/25,01:00,0.696,0.997,0.658,1.248,0.876,0.397,0.702,0.667,�k��,6.0,��
2020/01/25,01:10,0.696,0.995,0.658,1.251,0.877,0.397,0.702,0.667,�k��,6.3,��
2020/01/25,01:20,0.696,0.996,0.658,1.249,0.877,0.396,0.703,0.667,�k��,6.3,��
2020/01/25,01:30,0.698,0.993,0.658,1.251,0.877,0.398,0.702,0.667,�k��,5.8,��
2020/01/25,01:40,0.698,0.995,0.659,1.250,0.878,0.397,0.701,0.667,�k��,5.5,��
2020/01/25,01:50,0.696,0.996,0.657,1.251,0.876,0.397,0.703,0.668,�k��,5.0,��
2020/01/25,02:00,0.694,0.995,0.658,1.250,0.876,0.397,0.703,0.666,�k��,4.5,��
2020/01/25,02:10,0.695,0.996,0.657,1.251,0.878,0.398,0.701,0.667,�k��,4.9,��
2020/01/25,02:20,0.695,0.995,0.658,1.253,0.877,0.397,0.701,0.667,�k��,4.9,��
2020/01/25,02:30,0.695,0.993,0.656,1.250,0.878,0.396,0.703,0.667,�k��,4.9,��
2020/01/25,02:40,0.697,0.994,0.657,1.249,0.877,0.398,0.700,0.667,�k��,5.2,��
2020/01/25,02:50,0.695,0.995,0.659,1.251,0.876,0.398,0.702,0.667,�k��,5.8,��
2020/01/25,03:00,0.697,0.994,0.659,1.254,0.877,0.398,0.701,0.667,�k��,5.8,��
2020/01/25,03:10,0.696,0.997,0.658,1.251,0.879,0.398,0.702,0.665,�k��,5.2,��
2020/01/25,03:20,0.695,0.995,0.655,1.250,0.876,0.397,0.701,0.666,�k��,5.8,��
2020/01/25,03:30,0.696,0.997,0.659,1.251,0.876,0.397,0.700,0.668,�k��,5.0,��
2020/01/25,03:40,0.694,0.995,0.656,1.251,0.876,0.397,0.701,0.667,�k��,5.0,��
2020/01/25,03:50,0.693,0.995,0.656,1.249,0.875,0.398,0.702,0.667,�k��,5.2,��
2020/01/25,04:00,0.693,0.995,0.657,1.253,0.875,0.396,0.700,0.666,���k��,6.0,��
2020/01/25,04:10,0.695,0.996,0.656,1.252,0.875,0.397,0.700,0.667,���k��,6.1,��
2020/01/25,04:20,0.695,0.996,0.657,1.250,0.876,0.397,0.700,0.665,���k��,5.2,��
2020/01/25,04:30,0.694,0.992,0.657,1.250,0.876,0.397,0.700,0.668,���k��,5.0,��
2020/01/25,04:40,0.694,0.996,0.657,1.250,0.878,0.397,0.701,0.667,���k��,5.5,��
2020/01/25,04:50,0.696,0.994,0.657,1.251,0.877,0.398,0.700,0.665,��,6.3,��
2020/01/25,05:00,0.695,0.996,0.658,1.252,0.876,0.397,0.700,0.666,��,6.9,��
2020/01/25,05:10,0.695,0.995,0.656,1.252,0.876,0.397,0.701,0.666,��,6.6,��
2020/01/25,05:20,0.694,0.993,0.655,1.248,0.875,0.397,0.700,0.668,��,6.1,��
2020/01/25,05:30,0.696,0.995,0.656,1.248,0.875,0.397,0.702,0.666,��,4.0,��
2020/01/25,05:40,0.695,0.996,0.658,1.250,0.876,0.397,0.700,0.665,�k��,1.7,��
2020/01/25,05:50,0.694,0.993,0.657,1.250,0.878,0.399,0.700,0.666,���k��,2.3,��
2020/01/25,06:00,0.694,0.993,0.658,1.250,0.876,0.397,0.702,0.667,���k��,4.3,��
2020/01/25,06:10,0.695,0.997,0.656,1.250,0.875,0.396,0.701,0.665,��,5.8,��
2020/01/25,06:20,0.693,0.995,0.657,1.249,0.876,0.397,0.700,0.665,��,6.4,��
2020/01/25,06:30,0.693,0.994,0.656,1.252,0.876,0.397,0.699,0.666,��,6.6,��
2020/01/25,06:40,0.696,0.995,0.656,1.250,0.875,0.398,0.700,0.667,��,6.9,��
2020/01/25,06:50,0.693,0.994,0.655,1.249,0.877,0.397,0.702,0.666,���k��,7.2,��
2020/01/25,07:00,0.692,0.995,0.656,1.253,0.877,0.396,0.701,0.666,���k��,6.6,��
2020/01/25,07:10,0.694,0.995,0.655,1.251,0.875,0.396,0.700,0.666,���k��,6.0,��
2020/01/25,07:20,0.694,0.994,0.658,1.252,0.874,0.397,0.700,0.668,���k��,6.0,��
2020/01/25,07:30,0.693,0.993,0.656,1.252,0.876,0.395,0.699,0.666,���k��,5.3,��
2020/01/25,07:40,0.696,0.994,0.656,1.250,0.876,0.397,0.698,0.666,��,5.5,��
2020/01/25,07:50,0.695,0.996,0.655,1.252,0.875,0.396,0.700,0.666,��,4.4,��
2020/01/25,08:00,0.695,0.997,0.656,1.251,0.874,0.397,0.700,0.666,���쐼,5.3,��
2020/01/25,08:10,0.696,0.995,0.657,1.252,0.875,0.397,0.700,0.667,���쐼,4.7,��
2020/01/25,08:20,0.694,0.996,0.655,1.250,0.875,0.397,0.700,0.667,���쐼,4.4,��
2020/01/25,08:30,0.695,0.994,0.656,1.252,0.876,0.396,0.702,0.668,���쐼,4.1,��
2020/01/25,08:40,0.694,0.995,0.657,1.251,0.876,0.395,0.701,0.668,��,3.3,��
2020/01/25,08:50,0.694,0.994,0.655,1.252,0.877,0.397,0.701,0.666,��,4.0,��
2020/01/25,09:00,0.696,0.994,0.656,1.251,0.877,0.398,0.702,0.667,��,3.8,��
2020/01/25,09:10,0.696,0.995,0.656,1.251,0.877,0.397,0.700,0.667,��,4.1,��
2020/01/25,09:20,0.696,0.997,0.658,1.251,0.877,0.398,0.704,0.667,��,3.9,��
2020/01/25,09:30,0.696,0.995,0.656,1.251,0.878,0.397,0.704,0.668,���k��,6.1,��
2020/01/25,09:40,0.697,0.997,0.659,1.252,0.876,0.398,0.702,0.667,���k��,5.2,��
2020/01/25,09:50,0.698,0.998,0.658,1.252,0.876,0.396,0.699,0.667,��,5.3,��
2020/01/25,10:00,0.696,0.998,0.656,1.250,0.878,0.400,0.701,0.667,��,3.2,��
2020/01/25,10:10,0.697,0.999,0.658,1.251,0.878,0.399,0.700,0.667,�k��,2.9,��
2020/01/25,10:20,0.697,0.997,0.658,1.254,0.879,0.398,0.699,0.668,�k��,4.6,��
2020/01/25,10:30,0.697,0.998,0.660,1.253,0.881,0.401,0.700,0.667,���k��,3.6,��
2020/01/25,10:40,0.696,0.998,0.658,1.252,0.878,0.399,0.701,0.668,�k��,6.7,��
2020/01/25,10:50,0.699,0.998,0.658,1.253,0.879,0.400,0.700,0.667,�k��,5.5,��
2020/01/25,11:00,0.699,0.996,0.660,1.252,0.880,0.398,0.701,0.669,�k��,6.0,��
2020/01/25,11:10,0.700,1.000,0.658,1.254,0.879,0.399,0.699,0.670,�k��,6.0,��
2020/01/25,11:20,0.699,0.998,0.658,1.252,0.877,0.398,0.699,0.667,�k��,3.8,��
2020/01/25,11:30,0.699,0.998,0.658,1.255,0.880,0.399,0.700,0.668,�k��,7.4,��
2020/01/25,11:40,0.699,0.997,0.658,1.253,0.878,0.400,0.700,0.668,�k�k��,6.8,��
2020/01/25,11:50,0.700,0.998,0.659,1.252,0.881,0.399,0.701,0.667,�k��,5.2,��
2020/01/25,12:00,0.700,1.000,0.659,1.254,0.880,0.399,0.702,0.668,�k��,6.1,��
2020/01/25,12:10,0.700,1.000,0.659,1.255,0.881,0.399,0.700,0.669,�k�k��,4.9,��
2020/01/25,12:20,0.699,0.998,0.659,1.254,0.881,0.399,0.700,0.670,�k�k��,5.5,��
2020/01/25,12:30,0.700,0.998,0.661,1.254,0.881,0.401,0.699,0.669,�k�k��,4.1,��
2020/01/25,12:40,0.702,0.999,0.660,1.256,0.880,0.401,0.700,0.669,�k,2.4,��
2020/01/25,12:50,0.700,1.000,0.660,1.254,0.880,0.401,0.701,0.668,�k�k��,4.0,��
2020/01/25,13:00,0.699,1.001,0.659,1.255,0.882,0.398,0.700,0.669,�k��,2.7,��
2020/01/25,13:10,0.702,1.002,0.658,1.254,0.880,0.399,0.700,0.668,�k��,3.1,��
2020/01/25,13:20,0.701,1.001,0.660,1.255,0.881,0.399,0.702,0.670,�k�k��,3.0,��
2020/01/25,13:30,0.700,0.999,0.661,1.256,0.878,0.399,0.703,0.668,�k��,2.4,��
2020/01/25,13:40,0.701,0.999,0.660,1.256,0.882,0.399,0.702,0.669,�k��,3.3,��
2020/01/25,13:50,0.701,1.001,0.660,1.256,0.883,0.399,0.702,0.667,�k�k��,3.8,��
2020/01/25,14:00,0.702,1.000,0.661,1.254,0.884,0.400,0.701,0.669,�k��,2.3,��
2020/01/25,14:10,0.702,1.001,0.661,1.253,0.882,0.399,0.703,0.670,�k��,2.1,��
2020/01/25,14:20,0.701,1.003,0.661,1.257,0.882,0.399,0.701,0.670,���쐼,3.5,��
2020/01/25,14:30,0.701,1.004,0.660,1.257,0.885,0.399,0.702,0.669,�k,1.5,��
2020/01/25,14:40,0.703,1.003,0.660,1.255,0.883,0.401,0.701,0.670,�k��,3.8,��
2020/01/25,14:50,0.701,1.003,0.659,1.258,0.882,0.399,0.703,0.667,�k,5.0,��
2020/01/25,15:00,0.700,1.002,0.663,1.257,0.882,0.399,0.702,0.669,�k�k��,4.3,��
2020/01/25,15:10,0.702,1.005,0.659,1.257,0.881,0.400,0.702,0.669,�k�k��,3.0,��
2020/01/25,15:20,0.701,1.003,0.662,1.256,0.884,0.400,0.702,0.669,�k�k��,3.9,��
2020/01/25,15:30,0.700,1.001,0.662,1.257,0.881,0.400,0.702,0.669,�k�k��,4.7,��
2020/01/25,15:40,0.702,1.002,0.661,1.256,0.882,0.401,0.703,0.669,�k��,3.8,��
2020/01/25,15:50,0.701,1.004,0.661,1.256,0.883,0.399,0.703,0.668,�k�k��,2.6,��
2020/01/25,16:00,0.701,1.001,0.661,1.256,0.881,0.400,0.704,0.670,�k��,2.6,��
2020/01/25,16:10,0.701,1.003,0.660,1.258,0.882,0.399,0.703,0.669,�k��,2.9,��
2020/01/25,16:20,0.701,1.003,0.661,1.253,0.882,0.399,0.703,0.670,�k��,1.5,��
2020/01/25,16:30,0.700,1.003,0.662,1.254,0.882,0.399,0.704,0.667,�k��,3.0,��
2020/01/25,16:40,0.698,1.002,0.660,1.258,0.883,0.399,0.703,0.668,�k��,3.5,��
2020/01/25,16:50,0.700,1.002,0.660,1.257,0.881,0.399,0.703,0.669,�k��,4.4,��
2020/01/25,17:00,0.698,1.003,0.659,1.256,0.883,0.398,0.703,0.669,�k��,4.4,��
2020/01/25,17:10,0.699,1.004,0.661,1.257,0.880,0.399,0.702,0.669,�k��,4.5,��
2020/01/25,17:20,0.701,1.001,0.660,1.257,0.882,0.398,0.704,0.668,���k��,4.9,��
2020/01/25,17:30,0.699,1.001,0.662,1.256,0.882,0.400,0.702,0.668,���k��,4.6,��
2020/01/25,17:40,0.696,1.004,0.661,1.257,0.882,0.400,0.702,0.668,���k��,4.4,��
2020/01/25,17:50,0.698,1.002,0.660,1.256,0.882,0.398,0.703,0.668,���k��,4.0,��
2020/01/25,18:00,0.698,1.003,0.661,1.256,0.882,0.398,0.703,0.669,���k��,3.6,��
2020/01/25,18:10,0.700,1.003,0.661,1.256,0.881,0.398,0.703,0.667,��,4.9,��
2020/01/25,18:20,0.698,1.002,0.660,1.256,0.882,0.400,0.703,0.668,���k��,5.5,��
2020/01/25,18:30,0.698,1.000,0.659,1.256,0.881,0.398,0.703,0.669,���k��,4.7,��
2020/01/25,18:40,0.698,1.002,0.660,1.256,0.882,0.399,0.703,0.667,��,4.1,��
2020/01/25,18:50,0.698,1.001,0.660,1.257,0.881,0.397,0.702,0.670,���k��,5.2,��
2020/01/25,19:00,0.698,1.002,0.659,1.256,0.880,0.398,0.702,0.667,��,4.7,��
2020/01/25,19:10,0.699,1.001,0.660,1.254,0.882,0.399,0.703,0.667,��,5.2,��
2020/01/25,19:20,0.698,1.002,0.658,1.255,0.883,0.399,0.701,0.667,��,4.4,��
2020/01/25,19:30,0.699,1.000,0.661,1.255,0.883,0.396,0.703,0.667,��,3.8,��
2020/01/25,19:40,0.698,1.000,0.658,1.258,0.882,0.397,0.704,0.666,���k��,3.4,��
2020/01/25,19:50,0.699,1.001,0.659,1.255,0.881,0.397,0.702,0.666,��,3.3,��
2020/01/25,20:00,0.697,1.001,0.662,1.254,0.882,0.399,0.703,0.667,��,3.3,��
2020/01/25,20:10,0.698,1.003,0.660,1.255,0.881,0.400,0.702,0.667,��,3.2,��
2020/01/25,20:20,0.699,1.002,0.660,1.255,0.883,0.399,0.704,0.668,��,2.6,��
2020/01/25,20:30,0.699,1.002,0.659,1.256,0.882,0.398,0.703,0.669,���쐼,1.3,��
2020/01/25,20:40,0.698,1.002,0.659,1.256,0.880,0.398,0.702,0.668,���k��,0.8,��
2020/01/25,20:50,0.699,1.000,0.660,1.256,0.883,0.399,0.702,0.669,���k��,0.9,��
2020/01/25,21:00,0.698,1.002,0.660,1.256,0.882,0.399,0.702,0.667,�k��,0.9,��
2020/01/25,21:10,0.699,1.000,0.660,1.255,0.882,0.397,0.703,0.668,�k��,1.7,��
2020/01/25,21:20,0.697,1.002,0.661,1.255,0.883,0.399,0.701,0.667,�k��,2.8,��
2020/01/25,21:30,0.697,1.001,0.660,1.257,0.882,0.398,0.701,0.669,�k��,3.1,��
2020/01/25,21:40,0.697,1.003,0.659,1.254,0.882,0.398,0.701,0.669,�k�k��,3.0,��
2020/01/25,21:50,0.697,1.001,0.658,1.256,0.882,0.398,0.703,0.668,�k�k��,2.0,��
2020/01/25,22:00,0.698,1.002,0.661,1.257,0.881,0.399,0.701,0.667,�k�k��,2.4,��
2020/01/25,22:10,0.697,1.002,0.660,1.255,0.880,0.399,0.703,0.668,�k��,2.2,��
2020/01/25,22:20,0.698,1.001,0.659,1.257,0.880,0.398,0.703,0.668,���k��,2.5,��
2020/01/25,22:30,0.699,1.002,0.661,1.256,0.882,0.398,0.702,0.667,�k��,2.8,��
2020/01/25,22:40,0.699,0.998,0.661,1.256,0.884,0.399,0.703,0.667,�k��,3.0,��
2020/01/25,22:50,0.698,0.999,0.660,1.257,0.881,0.398,0.701,0.667,�k��,3.8,��
2020/01/25,23:00,0.699,1.002,0.659,1.256,0.881,0.399,0.703,0.668,�k��,4.4,��
2020/01/25,23:10,0.698,1.001,0.659,1.256,0.882,0.398,0.704,0.668,�k��,4.2,��
2020/01/25,23:20,0.698,1.003,0.660,1.255,0.884,0.398,0.702,0.669,�k��,4.5,��
2020/01/25,23:30,0.698,0.999,0.661,1.256,0.883,0.398,0.703,0.669,�k�k��,3.8,��
2020/01/25,23:40,0.697,1.002,0.660,1.256,0.882,0.398,0.702,0.668,�k�k��,4.1,��
2020/01/25,23:50,0.699,1.001,0.659,1.256,0.881,0.400,0.702,0.669,�k�k��,4.7,��
